Погода в Красном Мосте

Россия / Республика Марий Эл     56°33′43″N   47°09′13″E
темп.,
°C
ветер,
м/с
пор.,
м/с
влажн.,
%
обл.,
%
осадки,
мм/ч
давл.,
гПа
погр.,
м
2 марта, вт
вт200:00−4юз61495100 1.3 1009686
03:00−2юз61395100 3.9 1004772
06:000зюз51298100 1.8 1000714
09:00+1з51199100 2.5 999743
12:000з51199100 0.9 998823
15:00+1зсз5109698 1.3 998827
18:00−2зсз3119183 0.1 999365
21:00−3з399268 0.1 1000268
3 марта, ср
ср300:00−4з399788 0.1 1000301
03:00−4з499692 0.4 1001473
06:00−5сз51094100 0.6 1001614
09:00−5сз51093100 0.8 1003734
12:00−5сз5989100 0.3 1004767
15:00−4зсз5889100 0.4 1005818
18:00−6зсз4990100 0.1 1005701
21:00−6з41093100 0.1 1005526
4 марта, чт
чт400:00−6зюз41195100 0.2 1002489
03:00−4з41195100 0.6 1001640
06:00−5зюз41195100 0.1 999533
09:00−3зюз51194100 0.4 997723
12:00−1юз51198100 0.7 994808
15:000зюз71497100 2.3 9921227
18:00−2з5128799 0.4 993785
21:00−5з31092100 0.4 996374
5 марта, пт
пт500:00−8сз2397100 0.0 99753
03:00−11с2395100 0.0 99851
06:00−13с2394100 0.0 100041
09:00−11ссз249371 0.0 1002225
12:00−7сз359057 0.0 1004615
15:00−7зсз358879 0.1 1007883
18:00−10зсз2594100 0.1 1009151
21:00−15зсз239677 0.1 101220
6 марта, сб
сб600:00−16з12974 0.0 101320
03:00−15ююз129644 0.0 101320
06:00−14ю229677 0.0 101267
09:00−11ююз249588 0.3 1012313
12:00−7зюз3492100 0.1 1011591
15:00−6зсз4687100 0.4 1010865
18:00−11зсз3991100 0.1 1010359
21:00−17зсз239782 0.1 101171